RH
8 10 11 12 12 10 10 10 12 14 13 12 10 10 9 9 9 9 10 11 12 10 8 7 8 8 9 11 11 10 8 8 10 12 12 12 13 13 13 14 14 14 14 13 13
13 14 15 14 13 11 10 8 13 14 13 12 10 10 10 10 12 12 12 11 8 8 8 8 8 8 10 12 14 13 12 10 9 8 10 12 13 14 13 13 12 11 11 12 12
20 20 18 16 13 11 10 9 13 14 13 12 11 10 10 12 13 13 12 10 8 8 8 8 8 8 9 10 13 14 14 12 8 8 8 8 9 10 11 11 10 9 9 9 8
22 23 20 15 13 11 9 10 14 14 14 13 12 11 11 12 12 12 10 10 9 9 8 8 8 8 9 10 12 14 14 14 12 8 7 7 8 9 9 9 8 7 7 7 6
20 24 17 14 13 12 12 15 16 15 14 13 12 12 12 12 12 11 10 10 10 9 9 9 9 9 10 11 13 14 14 15 17 13 8 7 7 7 7 8 7 7 6 6 6
18 24 18 15 15 16 17 18 17 16 14 13 12 12 11 11 11 11 10 10 10 10 10 10 11 12 13 15 15 16 17 18 20 18 14 9 8 7 6 6 7 7 7 6 6
19 20 25 16 17 19 20 20 18 16 14 13 12 11 10 11 11 11 11 11 11 11 12 12 14 16 15 16 20 21 22 23 23 20 18 14 11 8 8 8 8 7 7 7 7
29 25 27 24 17 18 19 19 19 17 15 14 14 13 13 12 12 11 12 12 12 13 15 17 18 18 19 22 24 26 26 25 24 21 18 15 14 10 8 8 8 8 7 7 7
35 34 30 27 25 19 20 21 21 19 18 16 16 16 16 16 15 14 14 15 18 19 20 21 23 24 28 30 28 29 27 27 24 21 17 14 13 11 9 9 9 8 8 8 8
44 38 34 31 30 30 23 23 23 21 20 19 18 17 17 18 17 18 20 21 22 25 26 27 28 31 36 30 31 29 28 27 24 20 16 12 11 12 10 9 9 8 8 8 8
48 43 41 37 33 32 31 27 25 24 22 21 21 21 22 23 23 24 24 25 27 31 33 33 31 37 33 29 30 28 27 24 21 17 13 11 9 11 11 9 9 8 8 8 9
63 56 46 41 39 36 33 31 29 28 28 26 24 24 24 26 27 29 30 31 36 38 36 34 30 33 30 28 28 26 21 18 16 13 11 10 8 9 10 9 9 9 10 10 10
57 59 60 57 50 44 39 36 34 31 28 32 32 29 31 33 36 39 40 38 37 35 33 29 29 26 26 25 22 18 18 17 14 13 11 9 8 9 10 10 10 11 11 11 11
56 57 56 56 56 56 56 54 51 48 39 38 44 44 43 41 38 37 34 32 29 27 26 22 23 23 22 22 22 17 20 16 15 13 11 11 8 9 10 11 11 11 12 12 12
64 66 64 62 63 60 60 58 55 54 45 40 40 40 39 37 35 33 33 32 33 33 31 29 28 26 23 22 21 18 18 17 16 15 13 12 12 10 11 11 12 12 13 14 15
74 72 69 70 69 66 65 64 62 56 47 46 44 43 41 40 38 37 36 36 36 35 35 34 32 30 27 24 21 19 18 18 17 16 14 14 14 11 12 11 12 14 16 18 19
71 69 68 67 66 64 63 62 59 53 50 48 49 48 48 48 46 46 45 44 44 42 40 38 36 34 31 28 26 22 21 20 18 17 15 14 14 11 12 13 15 18 21 23 22
73 73 72 70 68 67 65 64 58 53 56 56 56 56 54 54 52 52 51 49 49 48 46 43 39 35 31 26 23 21 20 20 20 19 18 15 12 11 13 17 21 25 27 29 27
33 38 46 53 58 60 60 60 58 56 52 51 51 52 52 50 47 46 45 44 42 39 35 32 30 25 22 20 19 17 18 21 22 21 20 16 14 14 18 26 35 40 41 36 38
21 22 24 26 28 30 31 33 34 32 33 32 33 33 32 29 27 26 25 25 23 23 24 22 21 18 18 18 18 20 20 20 22 22 22 16 20 18 25 35 45 51 55 65 68
8 8 9 11 13 14 16 18 19 20 20 21 21 21 21 21 21 21 18 18 18 18 18 18 18 16 16 15 18 20 20 22 29 27 35 41 32 37 41 56 65 75 87 84 82
58 50 24 10 15 18 17 17 14 13 13 10 10 9 9 10 11 11 12 11 12 12 12 13 13 12 12 12 12 13 14 28 50 62 93 86 48 68 71 73 88 92 95 90 84
74 69 75 76 55 51 60 57 56 60 67 64 48 33 22 16 10 8 7 8 12 13 15 26 26 20 10 12 16 41 54 78 100 100 82 100 62 84 79 81 92 100 97 96 87
62 63 74 85 91 93 89 90 85 80 77 78 76 80 76 71 70 51 40 35 28 32 46 65 61 66 47 46 95 95 96 97 100 95 89 91 96 68 91 98 100 93 95 90 83
26 26 31 31 36 43 46 47 47 51 53 66 74 79 79 77 74 82 80 75 80 88 99 100 96 100 96 88 98 100 99 99 97 98 100 91 99 84 100 100 100 77 91 88 90
1 1 2 1 2 2 3 8 9 16 17 15 18 20 22 30 40 52 61 65 66 72 78 100 97 100 97 92 100 99 98 100 100 100 100 100 97 100 72 71 80 77 90 98 88
2 2 1 1 1 1 2 2 1 1 2 4 6 6 5 7 9 13 15 16 18 22 22 28 33 38 45 58 57 53 56 71 98 90 70 73 70 66 93 91 65 94 98 99 100
Wind_Speed
18 16 15 14 15 16 17 18 19 19 18 17 15 12 10 11 11 12 11 10 10 8 6 5 3 2 2 3 4 4 5 6 7 9 9 9 9 9 10 10 10 11 12 13 13
13 12 12 13 14 16 16 18 19 19 18 16 13 11 10 12 12 12 11 10 8 6 4 2 0 2 4 5 5 7 7 8 9 9 10 11 11 12 12 12 11 12 12 12 12
10 10 11 13 14 15 16 19 20 19 18 16 14 11 11 12 12 12 10 8 6 4 4 3 3 4 5 6 7 8 9 10 10 10 11 12 13 14 14 14 13 13 13 13 13
9 8 10 12 14 15 18 20 20 19 18 17 15 12 11 13 13 10 8 7 6 5 6 6 6 6 7 8 9 10 11 12 13 13 13 13 14 15 15 14 13 13 14 14 15
7 8 9 13 15 17 19 20 20 20 19 17 15 13 12 12 11 11 10 9 9 9 9 9 10 10 10 11 11 12 13 14 15 15 16 16 16 16 16 16 15 15 16 16 16
7 7 9 13 16 17 19 20 20 19 18 18 17 16 14 14 13 13 13 13 13 12 13 13 13 13 13 13 14 15 15 16 17 18 18 19 18 19 20 18 17 17 17 19 19
9 9 10 12 15 18 18 19 19 18 18 18 18 18 18 16 15 16 16 16 16 15 16 16 16 16 17 17 17 18 18 18 19 20 20 21 21 21 21 20 19 19 19 21 21
11 12 11 13 16 18 19 19 19 19 18 19 18 19 18 18 18 19 19 18 18 18 18 18 19 19 19 20 20 21 20 21 21 22 22 22 18 26 24 23 23 22 23 23 23
10 12 14 15 16 16 18 20 20 20 20 20 20 20 19 21 20 20 20 19 19 20 20 21 21 21 22 24 23 23 23 23 24 26 26 25 19 29 28 25 25 25 25 26 27
10 12 14 16 17 17 18 20 21 20 20 21 21 22 22 21 23 22 22 22 22 22 23 24 24 24 26 28 25 26 25 25 27 30 29 27 20 26 31 28 27 28 28 27 29
11 13 15 16 17 18 20 21 22 22 22 23 23 23 23 24 24 24 24 24 25 25 27 27 27 25 31 28 28 28 28 28 29 32 31 29 23 21 28 31 30 29 30 32 32
14 15 15 17 18 20 21 22 24 24 24 26 26 25 26 26 26 27 27 28 28 28 29 30 28 30 30 30 30 30 31 30 31 31 33 30 26 23 24 30 32 32 33 34 35
17 18 18 19 21 21 22 24 25 27 28 25 28 28 29 29 29 28 29 29 29 30 31 32 29 29 30 31 31 33 33 32 34 34 34 34 31 27 26 30 31 33 35 34 35
19 20 21 22 23 25 25 26 28 29 32 28 29 29 30 30 30 29 30 30 30 29 30 31 29 30 32 33 34 36 33 36 36 38 39 36 37 32 29 34 34 35 36 37 38
22 22 23 24 25 26 28 29 30 32 36 30 28 26 26 27 28 27 29 30 31 32 33 34 33 33 35 34 36 37 37 39 40 42 43 41 41 38 35 41 41 42 41 40 40
26 26 27 28 28 29 30 31 32 33 36 32 31 31 31 32 33 35 35 36 35 36 37 36 38 38 37 37 39 40 41 42 45 46 48 45 47 45 40 42 45 46 46 46 44
32 31 32 33 33 34 35 35 36 37 37 37 35 35 36 37 38 39 39 39 39 41 41 43 43 43 42 42 43 43 45 47 51 50 52 51 53 47 45 45 47 47 49 50 50
38 37 37 37 38 39 39 41 42 42 41 42 42 41 42 42 44 44 45 44 44 46 48 49 48 47 46 46 48 48 48 50 53 55 56 58 58 53 51 50 52 54 53 52 53
42 43 44 44 44 45 45 46 46 47 47 47 48 49 48 48 49 50 49 49 49 49 52 54 54 52 51 51 51 52 53 52 57 59 61 62 60 56 54 57 61 60 59 55 52
45 45 47 48 48 49 50 50 50 51 52 53 53 54 54 53 53 53 53 52 54 54 55 56 58 57 57 58 58 58 56 58 59 62 64 64 63 60 60 64 65 61 56 52 50
47 48 49 50 52 53 53 54 55 55 57 58 57 58 58 58 58 58 56 56 58 59 60 61 63 60 62 62 61 61 62 62 61 64 66 67 66 64 67 68 60 55 51 50 49
45 47 50 51 53 54 55 56 57 58 59 61 61 62 62 62 63 63 60 60 61 63 64 64 68 67 65 65 66 67 66 63 65 65 67 73 75 62 60 56 55 54 50 51 53
44 47 49 52 55 55 56 57 57 57 58 59 62 64 64 65 67 65 64 63 64 64 66 66 69 70 69 68 68 67 65 66 67 69 73 70 73 56 57 59 56 53 54 55 56
50 50 52 52 54 58 62 63 63 63 62 63 63 64 64 64 65 66 65 66 66 67 66 66 69 70 70 67 66 69 69 68 66 67 68 68 65 61 56 59 58 60 58 59 58
55 56 56 57 59 61 63 63 63 63 63 65 67 69 70 71 71 69 70 70 68 66 65 65 68 68 69 68 69 69 66 65 67 69 68 68 68 66 62 65 67 67 64 63 60
49 51 55 57 60 61 62 64 66 68 67 65 67 67 69 70 71 70 71 70 70 67 67 65 67 66 67 66 65 67 64 64 66 63 67 71 74 75 75 70 69 70 67 66 65
48 49 50 54 57 61 63 62 64 66 67 68 68 67 66 68 70 71 72 72 71 70 71 71 71 71 71 69 69 70 72 69 68 71 74 75 76 74 72 65 67 68 67 65 61
Wind_Direction
158 165 171 178 178 179 179 182 182 174 161 149 140 136 144 153 154 151 149 154 155 152 156 150 131 75 12 3 355 342 315 286 266 257 259 265 269 273 274 276 278 279 278 278 279
161 171 177 184 186 186 187 186 183 177 166 153 146 146 158 162 156 153 158 164 166 170 181 178 152 347 351 352 351 341 321 305 285 274 266 264 265 270 276 279 282 286 288 288 290
165 178 187 192 191 191 194 190 186 182 174 161 156 162 169 167 171 172 177 181 191 205 231 261 293 316 325 327 321 322 322 314 299 284 275 270 268 268 270 274 281 286 291 295 304
178 188 198 197 193 192 191 188 189 187 182 173 170 172 180 184 188 191 198 205 223 240 261 279 288 299 307 304 310 314 316 313 308 294 285 282 276 271 270 272 277 286 291 295 300
188 199 201 193 192 193 194 195 195 193 191 184 181 184 191 198 201 211 219 232 242 255 267 273 282 290 292 297 302 305 307 307 304 299 291 286 280 276 273 275 275 281 288 290 292
204 207 201 196 197 200 203 204 202 201 202 198 197 197 202 211 217 222 231 242 249 256 265 272 278 282 289 293 297 299 301 302 298 296 292 287 286 278 277 277 273 277 284 287 288
225 222 215 206 208 210 213 214 211 211 212 213 212 212 213 217 225 233 241 247 251 257 263 271 279 286 291 293 296 297 297 296 294 293 292 290 289 280 277 274 272 275 279 282 285
232 233 230 222 219 220 223 222 221 220 220 224 226 229 230 231 233 240 245 248 255 262 268 275 281 287 290 291 292 293 293 293 292 292 291 289 286 283 276 274 273 275 281 283 286
239 239 238 233 230 230 230 231 230 230 230 233 238 239 245 244 246 247 250 253 257 263 269 276 279 284 288 287 289 289 292 291 291 290 289 288 285 281 281 276 276 276 280 287 288
257 251 244 241 239 239 240 240 239 239 242 244 245 246 250 252 252 253 256 259 263 267 271 274 278 284 286 284 289 286 286 287 289 287 289 288 283 279 281 278 279 282 285 289 288
266 259 256 253 249 248 247 247 248 246 249 250 251 254 253 255 257 260 262 265 268 271 274 275 278 285 278 286 285 285 285 286 286 286 287 286 285 271 277 283 283 283 286 289 290
272 270 265 262 258 255 254 253 253 254 252 257 257 258 260 262 264 266 267 268 271 273 275 276 279 278 281 282 282 282 283 288 283 283 284 284 284 277 272 277 282 285 288 288 289
267 268 268 267 267 265 264 264 264 263 260 259 266 265 267 269 269 269 269 270 271 272 272 274 278 278 279 279 282 283 285 283 282 282 282 284 281 278 278 278 280 285 285 286 286
266 266 266 265 266 266 266 267 268 270 269 267 268 271 272 270 270 269 268 269 270 271 271 273 278 276 277 279 281 280 281 282 283 282 283 281 283 280 282 281 283 283 286 288 287
265 265 265 266 266 266 266 267 268 271 273 272 272 270 267 267 268 267 268 268 271 272 272 276 275 273 275 279 278 278 281 281 281 281 281 282 285 284 285 291 294 294 294 292 291
264 265 266 266 265 266 266 267 268 269 271 272 271 270 271 270 270 270 270 270 272 273 273 274 275 276 277 278 278 281 280 280 280 280 279 284 284 281 286 286 292 295 296 296 295
269 268 267 268 269 269 269 269 267 266 272 273 273 271 271 272 271 272 272 273 275 276 276 274 275 277 278 278 278 278 279 280 279 280 281 281 280 283 286 287 287 288 290 293 294
270 268 268 268 268 269 269 270 269 271 273 273 275 274 273 273 273 274 274 275 275 276 277 276 275 274 274 275 276 275 276 276 281 281 280 281 282 287 287 287 288 288 289 290 290
272 273 271 269 269 268 268 268 270 270 272 273 272 272 272 272 272 273 273 273 274 274 275 277 276 277 275 274 275 276 275 278 278 277 277 279 282 282 284 288 290 291 292 292 289
270 271 272 272 272 272 270 269 270 270 269 271 271 271 271 271 271 272 273 273 273 273 272 272 274 275 275 276 275 276 276 276 276 277 280 279 281 284 286 285 288 292 290 289 287
272 271 270 271 271 271 271 271 271 271 271 272 272 272 272 272 272 272 272 273 274 275 274 275 273 273 274 276 276 275 274 275 275 275 278 282 280 282 286 289 290 289 288 287 286
279 277 274 271 270 270 270 270 270 270 270 271 270 271 270 270 271 272 274 274 273 273 274 274 273 273 274 273 272 272 275 276 275 278 280 278 281 287 286 287 286 286 287 283 281
281 282 279 276 274 271 269 271 271 271 271 270 270 269 269 270 271 271 272 272 272 272 273 272 273 275 276 276 277 278 276 275 279 278 278 280 282 285 283 283 285 287 283 280 280
282 281 280 278 277 275 273 272 271 271 271 271 271 270 269 268 269 270 268 268 269 270 270 271 272 274 274 275 276 276 276 278 279 278 281 280 285 282 285 286 284 279 277 276 278
285 284 281 281 278 276 275 273 272 271 272 272 272 272 273 272 271 271 270 270 270 270 272 273 273 272 274 275 274 274 275 276 278 279 279 283 285 286 282 277 276 275 276 276 276
303 300 293 286 282 278 274 273 274 273 272 269 268 268 270 270 271 270 271 271 269 269 271 268 268 269 270 274 276 278 279 279 277 277 277 277 277 276 278 279 280 279 276 277 276
323 316 309 299 292 286 282 278 275 272 271 271 270 267 265 265 267 268 270 270 270 270 270 269 271 272 272 274 273 275 272 273 273 273 275 276 276 277 276 276 281 275 274 271 268